Location: Winter Haven
(28.0220°N, 81.7330°W)
Time: 05:09:32
(UTC-04:00)

Amateur Radio Satellites - All Passes

Search period start: 26 March 2017 04:39
Search period end: 27 March 2017 04:39
Location: Winter Haven, 28.0220°N, 81.7330°W

Satellite Date Start Highest point End Downlink Frequencies (MHz)
Time Altitude Azimuth
ISS 26 Mar 04:39:34 04:42:05 20° 40° (NE) 04:44:37 437.550
Tancredo 1 26 Mar 04:42:31 04:45:10 24° 42° (NE) 04:47:50 437.200
CUBESAT XI-V 26 Mar 04:57:29 05:01:29 30° 73° (ENE) 05:05:28 437.345
O/OREOS (USA 219) 26 Mar 04:59:22 05:03:15 27° 258° (WSW) 05:07:07 437.305
KKS-1 26 Mar 05:29:15 05:33:41 74° 258° (WSW) 05:38:09 437.445
AO-7 26 Mar 05:58:21 06:06:02 44° 293° (WNW) 06:13:43 .
STARS 26 Mar 06:07:13 06:11:35 63° 259° (W) 06:15:58 437.465
ITAMSAT 1 26 Mar 06:12:34 06:14:09 11° 294° (WNW) 06:15:44 435.822/435.867
ISS 26 Mar 06:15:49 06:18:30 23° 233° (SW) 06:21:10 437.550
NO-84 26 Mar 06:17:13 06:19:27 19° 124° (SE) 06:21:37 435.350 FM
Tancredo 1 26 Mar 06:18:56 06:21:09 17° 234° (SW) 06:23:22 437.200
AO-85 26 Mar 06:20:57 06:22:59 13° 56° (NE) 06:25:03 145.980
CUBESAT XI-V 26 Mar 06:35:45 06:38:48 18° 264° (W) 06:41:51 437.345
M-CUBED/EXP-1 PRIME 26 Mar 06:40:33 06:43:54 42° 70° (ENE) 06:47:30 437.505
XW-2F 26 Mar 06:46:35 06:49:03 17° 96° (E) 06:51:30 145.980 - 146.000
LilacSat-2 26 Mar 06:46:42 06:49:25 19° 96° (E) 06:52:06 437.200
XW-2D 26 Mar 07:11:11 07:14:45 41° 99° (E) 07:18:17 145.860 - 145.880
YUBILEINY 26 Mar 07:12:14 07:18:02 20° 83° (E) 07:23:47 435.215
NUDT-PHONESAT 26 Mar 07:12:55 07:16:14 32° 98° (E) 07:19:31 437.300
STRAND 1 26 Mar 07:13:19 07:16:58 20° 69° (ENE) 07:20:36 437.568
XW-2B 26 Mar 07:17:02 07:20:41 49° 100° (E) 07:24:18 145.730 - 145.750
KAITUO 1B 26 Mar 07:19:20 07:22:49 40° 99° (E) 07:26:18 145.475/437.950
XW-2C 26 Mar 07:27:06 07:30:51 73° 101° (E) 07:34:34 145.795 - 145.815
DOVE 4 26 Mar 07:30:17 07:35:36 79° 284° (WNW) 07:40:44 437.250
JUGNU 26 Mar 07:46:52 07:51:26 24° 166° (SSE) 07:56:02 437.505
CUTE-I 26 Mar 07:55:01 08:00:21 74° 284° (WNW) 08:05:39 437.470
NO-84 26 Mar 07:55:12 07:56:53 14° 315° (NW) 07:58:33 435.350 FM
AO-85 26 Mar 07:59:45 08:03:23 34° 247° (WSW) 08:07:12 145.980
XW-2F 26 Mar 08:20:18 08:23:03 20° 287° (WNW) 08:25:47 145.980 - 146.000
LilacSat-2 26 Mar 08:20:55 08:23:31 18° 288° (WNW) 08:26:07 437.200
HO-68 26 Mar 08:31:32 08:38:24 48° 101° (E) 08:45:15 435.675
CUBEBUG 2 26 Mar 08:47:04 08:50:38 25° 96° (E) 08:54:06 437.445
NUDT-PHONESAT 26 Mar 08:49:25 08:49:47 10° 290° (WNW) 08:50:08 437.300
AAUSAT CUBESAT 2 26 Mar 08:49:51 08:52:43 18° 96° (E) 08:55:35 437.432
STRAND 1 26 Mar 08:51:08 08:55:49 35° 261° (W) 09:00:31 437.568
PCSat 26 Mar 08:53:36 08:55:47 12° 103° (ESE) 08:57:58 145.827
BEESAT 3 26 Mar 09:00:34 09:04:35 88° 75° (ENE) 09:08:32 437.485
SEEDS 26 Mar 09:02:53 09:07:02 66° 101° (E) 09:11:13 437.485
YUBILEINY 26 Mar 09:05:19 09:13:58 64° 277° (W) 09:22:38 435.215
XW-2A 26 Mar 09:05:57 09:09:05 36° 284° (WNW) 09:12:11 145.665 - 145.685
CUTE 1.7 + AOD 2 26 Mar 09:08:53 09:13:02 61° 284° (WNW) 09:17:12 437.475
BEESAT 2 26 Mar 09:15:14 09:19:06 43° 61° (ENE) 09:22:55 435.950
AO-73 26 Mar 09:25:20 09:28:23 20° 96° (E) 09:31:25 145.935
JUGNU 26 Mar 09:34:41 09:40:02 36° 175° (S) 09:45:24 437.505
UNISAT 6 26 Mar 09:42:20 09:43:47 11° 68° (ENE) 09:45:13 437.425
FO-29 26 Mar 09:44:22 09:48:18 15° 64° (ENE) 09:52:10 435.910
SRMSAT 26 Mar 09:49:17 09:53:27 20° 163° (SSE) 09:57:38 437.500
UWE-3 26 Mar 09:50:04 09:54:20 84° 283° (WNW) 09:58:29 435.000/436.395/437.385
DELFI C3 26 Mar 10:13:14 10:15:51 17° 96° (E) 10:18:28 145.870
HO-68 26 Mar 10:20:07 10:25:41 25° 294° (WNW) 10:31:16 435.675
CUBEBUG 2 26 Mar 10:24:02 10:27:01 18° 289° (WNW) 10:29:56 437.445
AAUSAT CUBESAT 2 26 Mar 10:24:44 10:28:03 24° 287° (WNW) 10:31:23 437.432
Oscar 11 26 Mar 10:24:59 10:29:17 76° 283° (WNW) 10:33:34 .
ZACube-1 26 Mar 10:31:59 10:35:58 44° 285° (WNW) 10:39:53 437.345
PCSat 26 Mar 10:33:17 10:38:35 58° 295° (WNW) 10:43:56 145.827
PRISM 26 Mar 10:34:06 10:38:07 71° 259° (WSW) 10:42:11 437.425
AO-73 26 Mar 11:01:19 11:04:29 21° 288° (WNW) 11:07:37 145.935
TIGRISAT 26 Mar 11:05:11 11:09:53 77° 259° (W) 11:14:34 435.000
UNISAT 6 26 Mar 11:15:24 11:19:58 52° 260° (W) 11:24:33 437.425
JUGNU 26 Mar 11:23:19 11:28:42 36° 185° (S) 11:34:07 437.505
FO-29 26 Mar 11:24:30 11:32:24 88° 254° (WSW) 11:40:03 435.910
SRMSAT 26 Mar 11:36:52 11:42:11 33° 172° (S) 11:47:31 437.500
AIST 2D 26 Mar 11:37:49 11:40:44 24° 74° (ENE) 11:43:40 435.315
NANOSAT C BR1 26 Mar 11:46:41 11:49:36 18° 71° (ENE) 11:52:32 145.865
DELFI C3 26 Mar 11:47:20 11:50:31 23° 287° (WNW) 11:53:43 145.870
EO-79 26 Mar 11:50:36 11:53:56 23° 72° (ENE) 11:57:16 145.935-145.965
LO-87 26 Mar 11:53:26 11:56:41 30° 98° (E) 11:59:53 145.935 - 145.965
POLYITAN 1 26 Mar 12:17:42 12:21:51 51° 76° (ENE) 12:26:01 437.675
QB50P2 26 Mar 12:22:13 12:26:27 65° 76° (ENE) 12:30:42 145.880/145.840
RS-15 26 Mar 12:34:03 12:45:12 52° 108° (ESE) 12:56:49 29.354- 29.394
DUCHIFAT 1 26 Mar 12:34:51 12:39:04 69° 77° (ENE) 12:43:18 145.980
ESTCUBE 1 26 Mar 12:40:43 12:45:11 62° 101° (E) 12:49:39 437.505/2401.250
BUGSAT 1 26 Mar 12:52:33 12:56:17 32° 73° (ENE) 13:00:03 437.445
SPROUT 26 Mar 13:05:11 13:08:45 25° 97° (E) 13:12:17 437.525
AIST 2D 26 Mar 13:12:34 13:13:54 12° 265° (W) 13:15:14 435.315
JUGNU 26 Mar 13:12:37 13:17:19 24° 194° (SSW) 13:22:02 437.505
FO-29 26 Mar 13:14:54 13:17:49 12° 268° (W) 13:20:43 435.910
NANOSAT C BR1 26 Mar 13:21:32 13:25:04 25° 262° (W) 13:28:38 145.865
SRMSAT 26 Mar 13:25:31 13:31:02 38° 182° (S) 13:36:32 437.500
EO-79 26 Mar 13:26:20 13:29:32 21° 263° (W) 13:32:45 145.935-145.965
LO-87 26 Mar 13:28:58 13:29:45 11° 290° (WNW) 13:30:33 145.935 - 145.965
DX 1 26 Mar 13:32:58 13:36:30 24° 98° (E) 13:40:01 434.975-435.025
VELOX 1 26 Mar 13:54:24 13:58:48 62° 284° (WNW) 14:03:12 145.980
Oscar 19 26 Mar 13:54:43 13:59:38 49° 74° (ENE) 14:04:33 437.125/150
Gurwin Techsat 1B 26 Mar 14:07:30 14:12:18 36° 72° (ENE) 14:17:07 435.225
UKube-1 26 Mar 14:12:54 14:17:08 51° 101° (E) 14:21:20 .
50 SAT 26 Mar 14:23:57 14:27:02 30° 285° (WNW) 14:30:08 437.505
BUGSAT 1 26 Mar 14:29:22 14:31:37 14° 265° (W) 14:33:54 437.445
SPROUT 26 Mar 14:41:29 14:44:24 18° 289° (WNW) 14:47:19 437.525
SO-50 26 Mar 14:45:21 14:49:47 43° 113° (ESE) 14:54:11 436.795
RS-15 26 Mar 14:46:54 14:57:48 40° 306° (NW) 15:09:09 29.354- 29.394
AO-7 26 Mar 14:58:35 15:04:53 25° 62° (ENE) 15:11:11 .
JUGNU 26 Mar 15:04:38 15:05:51 11° 201° (SSW) 15:07:03 437.505
DX 1 26 Mar 15:09:13 15:12:29 21° 289° (WNW) 15:15:44 434.975-435.025
SRMSAT 26 Mar 15:14:46 15:19:50 29° 192° (SSW) 15:24:54 437.500
Oscar 19 26 Mar 15:36:44 15:39:05 13° 265° (W) 15:41:28 437.125/150
ITAMSAT 1 26 Mar 15:41:10 15:46:09 47° 73° (ENE) 15:51:09 435.822/435.867
Gurwin Techsat 1B 26 Mar 15:48:24 15:52:14 20° 264° (W) 15:56:04 435.225
BEESAT 26 Mar 15:50:22 15:54:50 40° 100° (E) 15:59:16 436.000
ITUPSAT 1 26 Mar 16:06:18 16:11:01 61° 101° (E) 16:15:41 437.325
MOZHAYETS 4 26 Mar 16:09:02 16:12:43 24° 97° (E) 16:16:23
NO-84 26 Mar 16:09:40 16:13:04 58° 233° (SW) 16:16:46 435.350 FM
SO-50 26 Mar 16:27:39 16:30:23 15° 306° (NW) 16:33:06 436.795
AO-7 26 Mar 16:48:50 16:57:01 59° 256° (WSW) 17:05:13 .
CUBESAT XI-V 26 Mar 17:02:12 17:04:27 13° 95° (E) 17:06:41 437.345
SRMSAT 26 Mar 17:05:23 17:08:32 15° 200° (SSW) 17:11:40 437.500
ITAMSAT 1 26 Mar 17:22:55 17:25:44 15° 265° (W) 17:28:33 435.822/435.867
O/OREOS (USA 219) 26 Mar 17:24:39 17:29:09 80° 106° (ESE) 17:33:41 437.305
KKS-1 26 Mar 17:27:15 17:31:22 36° 99° (E) 17:35:28 437.445
BEESAT 26 Mar 17:29:35 17:32:12 15° 292° (WNW) 17:34:49 436.000
MOZHAYETS 4 26 Mar 17:46:12 17:49:41 22° 289° (WNW) 17:53:09
XW-2C 26 Mar 18:03:25 18:05:10 13° 71° (ENE) 18:06:56 145.795 - 145.815
STARS 26 Mar 18:03:32 18:07:40 39° 99° (E) 18:11:46 437.465
DOVE 4 26 Mar 18:28:32 18:32:51 45° 74° (ENE) 18:37:27 437.250
CUBESAT XI-V 26 Mar 18:37:31 18:41:52 41° 286° (WNW) 18:46:15 437.345
XW-2F 26 Mar 18:53:09 18:56:56 64° 76° (ENE) 19:00:40 145.980 - 146.000
LilacSat-2 26 Mar 18:54:30 18:58:20 75° 77° (ENE) 19:02:09 437.200
HO-68 26 Mar 18:55:05 18:59:23 17° 63° (ENE) 19:03:41 435.675
KKS-1 26 Mar 19:05:07 19:07:33 15° 291° (WNW) 19:09:59 437.445
CUTE-I 26 Mar 19:09:37 19:14:59 89° 261° (W) 19:20:23 437.470
NUDT-PHONESAT 26 Mar 19:18:33 19:22:16 65° 259° (W) 19:26:00 437.300
XW-2D 26 Mar 19:19:13 19:22:53 46° 260° (W) 19:26:34 145.860 - 145.880
YUBILEINY 26 Mar 19:24:15 19:32:33 47° 80° (E) 19:40:50 435.215
XW-2B 26 Mar 19:25:15 19:28:50 39° 261° (W) 19:32:26 145.730 - 145.750
KAITUO 1B 26 Mar 19:25:59 19:29:38 49° 260° (W) 19:33:16 145.475/437.950
PCSat 26 Mar 19:28:39 19:33:10 26° 60° (ENE) 19:37:40 145.827
XW-2A 26 Mar 19:30:59 19:33:30 19° 73° (ENE) 19:36:02 145.665 - 145.685
STRAND 1 26 Mar 19:32:33 19:33:52 11° 94° (E) 19:35:10 437.568
XW-2C 26 Mar 19:35:45 19:39:03 28° 262° (W) 19:42:22 145.795 - 145.815
Tancredo 1 26 Mar 19:38:25 19:40:29 16° 126° (SE) 19:42:35 437.200
ISS 26 Mar 19:38:46 19:40:40 15° 125° (SE) 19:42:34 437.550
CUBEBUG 2 26 Mar 19:40:19 19:41:34 11° 68° (ENE) 19:42:50 437.445
STARS 26 Mar 19:41:35 19:43:35 13° 292° (WNW) 19:45:35 437.465
SEEDS 26 Mar 19:48:41 19:51:31 18° 72° (ENE) 19:54:21 437.485
CUTE 1.7 + AOD 2 26 Mar 19:54:33 19:58:23 35° 75° (ENE) 20:02:14 437.475
M-CUBED/EXP-1 PRIME 26 Mar 19:58:59 20:03:40 74° 287° (WNW) 20:08:16 437.505
DOVE 4 26 Mar 20:09:08 20:10:47 12° 268° (W) 20:12:27 437.250
AO-85 26 Mar 20:27:31 20:31:19 25° 112° (ESE) 20:34:54 145.980
HO-68 26 Mar 20:39:15 20:46:22 69° 257° (WSW) 20:53:29 435.675
UWE-3 26 Mar 20:39:39 20:43:50 33° 74° (ENE) 20:47:58 435.000/436.395/437.385
XW-2A 26 Mar 21:04:14 21:06:08 14° 264° (W) 21:08:04 145.665 - 145.685
AAUSAT CUBESAT 2 26 Mar 21:06:49 21:10:55 86° 78° (ENE) 21:15:01 437.432
STRAND 1 26 Mar 21:08:15 21:13:15 57° 285° (WNW) 21:18:13 437.568
PCSat 26 Mar 21:11:47 21:16:27 30° 253° (WSW) 21:21:06 145.827
Oscar 11 26 Mar 21:12:54 21:16:45 32° 74° (ENE) 21:20:35 .
CUBEBUG 2 26 Mar 21:12:58 21:17:38 56° 260° (W) 21:22:18 437.445
Tancredo 1 26 Mar 21:13:50 21:16:26 24° 318° (NW) 21:19:04 437.200
ISS 26 Mar 21:14:03 21:16:54 28° 317° (NW) 21:19:46 437.550
ZACube-1 26 Mar 21:19:52 21:24:20 56° 76° (ENE) 21:28:46 437.345
YUBILEINY 26 Mar 21:21:52 21:28:50 28° 274° (W) 21:35:51 435.215
SEEDS 26 Mar 21:23:35 21:26:58 24° 263° (W) 21:30:22 437.485
CUTE 1.7 + AOD 2 26 Mar 21:32:32 21:34:15 12° 266° (W) 21:35:59 437.475
RS-15 26 Mar 21:45:28 21:55:59 32° 50° (NE) 22:06:00 29.354- 29.394
AO-73 26 Mar 21:48:07 21:52:39 72° 258° (WSW) 21:57:09 145.935
AO-85 26 Mar 22:08:04 22:11:36 22° 301° (WNW) 22:14:58 145.980
UWE-3 26 Mar 22:17:14 22:20:14 17° 265° (W) 22:23:13 435.000/436.395/437.385
PRISM 26 Mar 22:22:35 22:26:06 26° 98° (E) 22:29:36 437.425
DELFI C3 26 Mar 22:24:55 22:28:48 71° 77° (ENE) 22:32:42 145.870
BEESAT 3 26 Mar 22:43:37 22:47:29 82° 116° (ESE) 22:51:26 437.485
FO-29 26 Mar 22:46:00 22:48:44 14° 92° (E) 22:51:22 435.910
Oscar 11 26 Mar 22:50:31 22:52:52 14° 265° (W) 22:55:14 .
BEESAT 2 26 Mar 22:59:55 23:03:35 40° 112° (ESE) 23:07:19 435.950
TIGRISAT 26 Mar 23:04:09 23:08:11 36° 99° (E) 23:12:07 435.000
UNISAT 6 26 Mar 23:14:11 23:18:28 55° 100° (E) 23:22:39 437.425
ESTCUBE 1 26 Mar 23:33:55 23:37:30 24° 72° (ENE) 23:41:06 437.505/2401.250
LO-87 26 Mar 23:55:22 23:58:56 77° 259° (W) 00:02:33 145.935 - 145.965
RS-15 26 Mar 23:57:14 00:09:07 65° 249° (WSW) 00:20:25 29.354- 29.394
PRISM 26 Mar 23:58:24 00:01:07 17° 289° (WNW) 00:03:49 437.425
POLYITAN 1 27 Mar 00:10:56 00:13:14 14° 95° (E) 00:15:30 437.675
QB50P2 27 Mar 00:15:01 00:17:55 18° 96° (E) 00:20:49 145.880/145.840
DUCHIFAT 1 27 Mar 00:26:43 00:29:40 18° 96° (E) 00:32:35 145.980
FO-29 27 Mar 00:28:41 00:34:11 48° 287° (WNW) 00:39:14 435.910
BEESAT 2 27 Mar 00:40:02 00:41:30 12° 306° (NW) 00:42:58 435.950
AIST 2D 27 Mar 00:42:04 00:45:32 85° 102° (ESE) 00:49:00 435.315
TIGRISAT 27 Mar 00:42:28 00:44:27 13° 291° (WNW) 00:46:26 435.000
VELOX 1 27 Mar 00:44:30 00:48:42 46° 75° (ENE) 00:52:55 145.980
50 SAT 27 Mar 00:50:37 00:53:34 27° 74° (ENE) 00:56:31 437.505
UKube-1 27 Mar 01:01:33 01:04:27 18° 70° (ENE) 01:07:22 .
SO-50 27 Mar 01:03:13 01:07:42 78° 64° (ENE) 01:12:11 436.795
ESTCUBE 1 27 Mar 01:10:48 01:14:10 21° 263° (W) 01:17:33 437.505/2401.250
NANOSAT C BR1 27 Mar 01:11:49 01:16:03 86° 104° (ESE) 01:20:14 145.865
EO-79 27 Mar 01:16:37 01:20:50 74° 284° (WNW) 01:25:01 145.935-145.965
SPROUT 27 Mar 01:26:20 01:30:33 58° 260° (W) 01:34:48 437.525
POLYITAN 1 27 Mar 01:45:18 01:49:00 30° 287° (WNW) 01:52:41 437.675
QB50P2 27 Mar 01:50:10 01:53:36 25° 288° (WNW) 01:57:02 145.880/145.840
DX 1 27 Mar 01:56:33 02:00:48 57° 259° (W) 02:05:05 434.975-435.025
DUCHIFAT 1 27 Mar 02:01:51 02:05:13 24° 288° (WNW) 02:08:33 145.980
Oscar 19 27 Mar 02:13:30 02:18:03 31° 98° (E) 02:22:37 437.125/150
BUGSAT 1 27 Mar 02:15:54 02:19:58 54° 284° (WNW) 02:23:57 437.445
VELOX 1 27 Mar 02:24:45 02:25:17 10° 266° (W) 02:25:49 145.980
Gurwin Techsat 1B 27 Mar 02:31:01 02:35:22 25° 97° (E) 02:39:42 435.225
UKube-1 27 Mar 02:36:37 02:40:13 26° 262° (W) 02:43:52 .
BEESAT 27 Mar 02:50:34 02:54:11 22° 70° (ENE) 02:57:48 436.000
ITUPSAT 1 27 Mar 03:06:22 03:10:36 32° 72° (ENE) 03:14:50 437.325
MOZHAYETS 4 27 Mar 03:06:43 03:07:45 11° 68° (ENE) 03:08:46
O/OREOS (USA 219) 27 Mar 03:41:40 03:46:08 48° 70° (ENE) 03:50:32 437.305
Tancredo 1 27 Mar 03:46:41 03:47:42 11° 37° (NE) 03:48:43 437.200
ISS 27 Mar 03:48:41 03:49:32 11° 36° (NE) 03:50:24 437.550
Oscar 19 27 Mar 03:53:11 03:57:07 22° 290° (WNW) 04:01:03 437.125/150
ITAMSAT 1 27 Mar 04:01:23 04:05:54 30° 98° (E) 04:10:22 435.822/435.867
Gurwin Techsat 1B 27 Mar 04:10:42 04:15:10 28° 289° (WNW) 04:19:39 435.225
KKS-1 27 Mar 04:19:53 04:22:21 15° 69° (ENE) 04:24:51 437.445
BEESAT 27 Mar 04:27:41 04:31:44 27° 262° (W) 04:35:47 436.000
